Regional Weather Roundup
Issued by NWS Charleston, SC

Current Version | Previous Version | Graphics & Text | Print | Product List | Glossary On
Versions: 1 2 3 4 5 6 7 8 9 10 11 12 13 14 15 16 17 18 19 20 21 22 23 24 25 26 27 28 29 30 31 32 33 34 35 36 37 38 39 40 41 42 43 44 45 46 47 48 49 50
000 ASUS42 KCHS 170012 RWRCHS REGIONAL WEATHER ROUNDUP NATIONAL WEATHER SERVICE CHARLESTON SC 800 PM EDT MON OCT 16 2017 NOTE: "FAIR" INDICATES FEW OR NO CLOUDS BELOW 12,000 FEET WITH NO SIGNIFICANT WEATHER AND/OR OBSTRUCTIONS TO VISIBILITY. NOT ALL STATIONS ARE QUALITY CONTROLLED. USE DATA WITH CAUTION... ESPECIALLY DEWPOINT OBSERVATIONS. SCZ027-030-031-034>040-042>050-170100- ...SOUTHEAST SOUTH CAROLINA... CITY SKY/WX TMP DP RH WIND PRES REMARKS N CHARLESTON CLOUDY 63 58 83 N20G31 30.06R 6HR MIN TEMP: 63; 6HR MAX TEMP: 86; 6HR PCP: 0.05; WATERFRONT PRK NOT AVBL JOHNS ISLAND CLOUDY 66 61 82 N16G26 30.04R PINOPOLIS N/A 64 61 88 NE20 29.99R MONCKS CORNER CLOUDY 63 55 77 NE14G21 30.09R SUMMERVILLE FAIR 63 57 82 N16G23 30.08R BEAUFORT MCAS MOCLDY 66 62 87 N13G21 30.06R 6HR MIN TEMP: 66; 6HR MAX TEMP: 89; 6HR PCP: 0.32; BEAUFORT ARPT CLOUDY 64 61 88 N26G33 30.05R HILTON HEAD IS CLOUDY 68 64 88 N24G32 30.02R WALTERBORO CLOUDY 63 54 72 N7 30.09R ALLENDALE NOT AVBL ...SOUTHERN MIDLANDS AND PEE DEE... CITY SKY/WX TMP DP RH WIND PRES REMARKS GEORGETOWN CLOUDY 61 59 94 N18 30.09R KINGSTREE CLOUDY 61 54 77 N5 30.11R ORANGEBURG MOCLDY 63 53 70 NE9 30.11R 6HR MIN TEMP: 63; 6HR MAX TEMP: 76; 6HR PCP: 0.01; BARNWELL N/A 66 59 77 NE9 30.11R AIKEN FAIR 63 55 77 NE9 30.16R MANNING DRZL/FOG 61 57 88 MISG 30.11R VSB 3/4 COLUMBIA PTCLDY 65 48 54 NE10 30.13R 6HR MIN TEMP: 65; 6HR MAX TEMP: 73; 6HR PCP: TRACE; SUMTER PTCLDY 61 53 75 N9 30.11R 6HR MIN TEMP: 60; 6HR MAX TEMP: 69; 6HR PCP: TRACE; FLORENCE PTCLDY 60 57 89 NE7 30.13R 6HR MIN TEMP: 59; 6HR MAX TEMP: 67; 6HR PCP: TRACE; MYRTLE BEACH CLOUDY 61 54 77 N15 30.11R N MYRTLE BEACH CLOUDY 60 54 80 N14 30.09R 6HR MIN TEMP: 60; 6HR MAX TEMP: 84; 6HR PCP: 0.21; $$ GAZ063-065-086>088-099>101-113>116-118-119-134>141-150-170100- ...SOUTHEAST GEORGIA... CITY SKY/WX TMP DP RH WIND PRES REMARKS SAVANNAH ARPT CLOUDY 72 68 87 NE17G26 30.02R 6HR MIN TEMP: 72; 6HR MAX TEMP: 88; 6HR PCP: 0.28; HUNTER AAF LGT RAIN 73 70 88 N10 29.99R 6HR MIN TEMP: 73; 6HR MAX TEMP: 88; 6HR PCP: 0.25; FORT STEWART CLOUDY 75 73 92 N5 29.98R 6HR MIN TEMP: 73; 6HR MAX TEMP: 87; 6HR PCP: 0.12; STATESBORO CLOUDY 71 59 66 NE14G20 30.06R SYLVANIA CLOUDY 69 61 76 NE15G23 30.08R CLAXTON CLOUDY 77 68 74 N12G23 30.02R ...CSRA...CENTRAL AND FAR SOUTHEAST GEORGIA... CITY SKY/WX TMP DP RH WIND PRES REMARKS THOMSON CLEAR 68 55 64 E8 30.16R AUGUSTA-BUSH PTCLDY 68 59 73 NE9 30.10R 6HR MIN TEMP: 68; 6HR MAX TEMP: 83; AUGUSTA-DANIEL CLEAR 68 59 73 NE13G20 30.11R SWAINSBORO MOCLDY 72 64 78 NE14G21 30.07R VIDALIA PTCLDY 73 61 64 N7 30.03R EASTMAN FAIR 67 48 51 CALM 30.09R HAZLEHURST N/A 74 54 49 NW6 30.02R ALMA MOCLDY 77 67 71 N8 30.00R 6HR MIN TEMP: 77; 6HR MAX TEMP: 87; 6HR PCP: TRACE; WAYCROSS CLOUDY 76 72 89 N5 30.00R JESUP NOT AVBL BAXLEY CLOUDY 73 70 88 N7 30.01R BRUNSWICK LGT RAIN 75 68 78 N3 29.99R SAINT SIMONS CLOUDY 75 71 87 SE5 29.99R 6HR MIN TEMP: 74; 6HR MAX TEMP: 88; 6HR PCP: 0.64; $$ SCZ027-028-034-036>038-045-046-048>050-GAZ119-141-170100- ...LAKE AND SUPPLEMENTAL COASTAL OBSERVATIONS... STATION/POSITION TIME TEMP WIND PRES WAVE SWELL AIR SEA DIR/SP/G HT/PER HT/PER/DIR (UTC) (F) (DEG/KT/KT) (MB) (FT/S) (FT/S/D) WINYAH BAY 2245 63 10/ 12 1017.0 LAKE MURRAY 2320 65 30/ 3/ 6 1019.3 ACE BASIN NERRS 2245 67 360/ 5 1016.0 FORT PULASKI 2336 73 80 20/ 13/ 23 1016.2R SAPELO ISLAND 2300 78 60/ 6 1015.0 $$ ANZ835-935-AMZ111-154-330-350-352-354-370-450-454-472-170100- ...C-MAN AND BUOY OBSERVATIONS... STATION/POSITION TIME TEMP WIND PRES WAVE SWELL AIR SEA DIR/SP/G HT/PER HT/PER/DIR (UTC) (F) (DEG/KT/KT) (MB) (FT/S) (FT/S/D) BUOY 41004 2350 72 81 360/ 25/ 31 1015.5R 4/ 4 2/ 90/ 8 BUOY 41008 2250 74 80 90/ 14/ 16 1014.4 2/ 9 2/110/ 9 FOLLY BEACH CMAN 2300 67 10/ 20/ 24 1017.0R CAPERS NEARSHORE 2308 64 78 20/ 19/ 25 1016.2R FRIPP NEARSHORE 2308 73 10/ 23/ 29 N/A STATION/POSITION TIME TEMP WIND PRES WAVE SWELL AIR SEA DIR/SP/G HT/PER HT/PER/DIR (UTC) (F) (DEG/KT/KT) (MB) (FT/S) (FT/S/D) 5E ST. MARYS GA 2330 81 N/A 2/ 9 FRYING PAN BUOY 2350 67 79 360/ 25/ 31 1016.3R 6/ 5 2/100/11 BUOY 41025 2350 68 81 10/ 25/ 31 1016.1R 7/ 6 2/110/11 CAPE LOOKOUT NC 2300 62 360/ 24/ 29 1016.4R BUOY 41002 2350 78 80 300/ 4/ 6 1014.0R 4/10 3/110/10 BUOY 41010 NOT AVBL ST AUGUSTINE FL 0000 80 83 80/ 7/ 8 1014.7R $$

USA.gov is the U.S. government's official web portal to all federal, state and local government web resources and services.